Regional Weather Roundup
Issued by NWS Jackson, KY

Home | Current Version | Previous Version | Text Only | Print | Product List | Glossary On
Versions: 1 2 3 4 5 6 7 8 9 10 11 12 13 14 15 16 17 18 19 20 21 22 23 24 25 26 27 28 29 30 31 32 33 34 35 36 37 38 39 40 41 42 43 44 45 46 47 48 49 50
000
ASUS43 KJKL 251910
RWRJKL

EAST KENTUCKY HOURLY WEATHER ROUNDUP
NATIONAL WEATHER SERVICE JACKSON KY
300 PM EDT THU MAY 25 2017

NOTE: "FAIR" INDICATES FEW OR NO CLOUDS BELOW 12,000 FEET WITH
NO SIGNIFICANT WEATHER AND/OR OBSTRUCTIONS TO VISIBILITY.

* THESE REPORTS ARE NOT UNDER NWS QUALITY CONTROL AND MAY NOT
  REPORT WEATHER SUCH AS PRECIPITATION AND FOG.

KYZ079-080-083-085-087-088-110-112-115-119-120-252000
...EASTERN KENTUCKY...

CITY           SKY/WX    TMP DP  RH WIND       PRES   REMARKS
JACKSON        RAIN      56  55  97 MISG      29.57R FOG
LONDON         LGT RAIN  57  53  86 W17G28    29.64S FOG
SOMERSET*      DRIZZLE   55  55 100 W16       29.68S
MONTICELLO*    CLOUDY    62  56  80 W23G32    29.70R
WILLIAMSBURG*  CLOUDY    55  55 100 W7        29.67R
MIDDLESBORO*   LGT RAIN  58  55  89 SW8       29.67S
HARLAN APT*    CLOUDY    54  52  94 SW8G16    29.64S
PIKE CO APT*   DRIZZLE   54  54 100 S7        29.56S
BIG SANDY APT* DRIZZLE   56  56 100 SW8G16    29.54S
MOREHEAD APT*  CLOUDY    59  57  94 W7G16     29.55R
$$

KYZ035-036-041-042-044-050-067-078-099-252000
...CENTRAL KENTUCKY...

CITY           SKY/WX    TMP DP  RH WIND       PRES   REMARKS
MT STERLING*   LGT RAIN N/A N/A N/A NW9G21    29.58R
FLEMING/MASON* CLOUDY    60  57  91 W18G25    29.53R
DANVILLE*      DRIZZLE   55  55 100 W14G23    29.64R
LEXINGTON      LGT RAIN  59  56  89 W21G29    29.60R FOG
FRANKFORT      CLOUDY    60  56  86 W13G21    29.59R
LOUISVILLE     CLOUDY    64  57  78 W16G25    29.63R
LEBANON*       CLOUDY    59  55  88 W12G22    29.65R
GLASGOW*       CLOUDY    67  54  64 W12G25    29.70S
BOWLING GREEN  PTSUNNY   71  57  61 W17G24    29.71S
$$

KYZ091>093-OHZ055-061-077-WVZ005-015-034-035-042-252000
...SOUTHERN OHIO/WEST VIRGINIA...

CITY           SKY/WX    TMP DP  RH WIND       PRES   REMARKS
COVINGTON      LGT RAIN  61  59  93 W20       29.53R
COLUMBUS       CLOUDY    65  56  72 SW7       29.46R
DAYTON         TSTM      67  61  81 NW15G21   29.48R
WILMINGTON     PTSUNNY   68  59  73 W10       29.47S
HUNTINGTON     RAIN      57  55  93 S8        29.48F FOG
CHARLESTON     LGT RAIN  58  54  86 S10       29.53S
PINEVILLE*     RAIN      56  53  92 MISG      29.63S
BECKLEY        CLOUDY    54  49  83 W12       29.58F
BLUEFIELD      LGT RAIN  51  47  86 W10       29.61S
LOGAN CO APT*  RAIN      55  54  94 S10       29.54F
$$

VAZ002-007-008-TNZ017-027-036-066-071-252000
...SOUTHWEST VIRGINIA/EAST TENNESSEE...

CITY           SKY/WX    TMP DP  RH WIND       PRES   REMARKS
WISE*          RAIN      52  52 100 SW17G26   29.63S
JONESVILLE*    LGT RAIN  55  55 100 SW12      29.67S
ABINGDON*      RAIN      55  54  97 W12G20    29.65S
BRISTOL        RAIN      56  53  90 SW13      29.66R FOG
MORRISTOWN*    CLOUDY    61  52  72 W14G25    29.67S
SEVIERVILLE*   CLOUDY    63  48  59 SW15      29.69S
KNOXVILLE      CLOUDY    65  51  60 SW23G32   29.70S
LAFOLLETTE*    CLOUDY    63  52  67 SW9G20    29.71R
OAK RIDGE      CLOUDY    65  50  58 VRB5      29.71S
CROSSVILLE     CLOUDY    62  49  62 W18G26    29.74S
NASHVILLE      PTSUNNY   73  51  46 W13G25    29.75S
$$

...KEY TO REMARKS...
VSB - VISIBILITY IN MILES
WCI - WIND CHILL INDEX
HX  - HEAT INDEX

$$



USA.gov is the U.S. government's official web portal to all federal, state and local government web resources and services.